Location: Il Ritiro
(43.4167°N, 13.1333°E)
Time: 07:46:19
(UTC+00:00)

PSLV R/B - Pass Details

Date: 05 July 2020
Orbit: 597 x 702 km, 97.9° (Epoch: 05 August)

Event Time Altitude Azimuth Distance (km) Brightness Sun altitude
Rises 23:30:09 0° 13° (NNE) 2,854 8.4 -23.8°
Reaches altitude 10° 23:32:19 10° 15° (NNE) 1,951 7.2 -23.8°
Maximum altitude 23:36:33 81° 102° (ESE) 619 3.4 -23.7°
Enters shadow 23:36:34 81° 106° (ESE) 619 3.4 -23.7°
